GW2019 Weather Reports


time (UTC)temp
C
wind
direction
speed
KPH
gust
KPH
rain 1hr
cm
rain 24hr
cm
rain mn
cm
humidity
%
barometer
mb
20260503023121 14 206 12.9 17.7 0.00 0.00 0.00 44 1011.5
20260503022122 14 201 14.5 19.3 0.00 0.00 0.00 43 1011.5
20260503021120 14 202 12.9 16.1 0.00 0.00 0.00 44 1011.5
20260503020122 15 202 19.3 25.7 0.00 0.00 0.00 43 1011.5
20260503015122 15 203 14.5 19.3 0.00 0.00 0.00 42 1011.5
20260503015021 15 202 12.9 19.3 0.00 0.00 0.00 42 1011.5
20260503014120 15 202 16.1 20.9 0.00 0.00 0.00 42 1011.5
20260503013122 15 202 12.9 17.7 0.00 0.00 0.00 42 1011.5
20260503011121 15 236 9.7 20.9 0.00 0.00 0.00 40 1011.5
20260503010120 15 244 19.3 25.7 0.00 0.00 0.00 38 1011.9
20260503005121 15 225 4.8 6.4 0.00 0.00 0.00 42 1011.9
20260503004120 15 225 4.8 6.4 0.00 0.00 0.00 42 1011.5
20260503003121 15 225 3.2 4.8 0.00 0.00 0.00 40 1011.9
20260503002120 15 252 6.4 9.7 0.00 0.00 0.00 38 1011.9
20260503001220 15 270 8.0 12.9 0.00 0.00 0.00 38 1011.9
20260503000222 16 263 9.7 16.1 0.00 0.00 0.00 38 1011.9
20260502235220 15 237 12.9 24.1 0.00 0.00 0.00 36 1012.0
20260502234319 15 231 11.3 14.5 0.00 0.00 0.00 35 1012.2
20260502233320 15 227 11.3 17.7 0.00 0.00 0.00 37 1012.2
20260502232321 15 202 9.7 11.3 0.00 0.00 0.00 37 1012.2
20260502231421 15 203 12.9 19.3 0.00 0.00 0.00 36 1012.2
20260502230420 15 225 11.3 16.1 0.00 0.00 0.00 36 1012.6
20260502223421 15 216 12.9 16.1 0.00 0.00 0.00 35 1012.9
20260502222422 15 205 12.9 16.1 0.00 0.00 0.00 35 1012.9
20260502215620 15 218 17.7 25.7 0.00 0.00 0.00 34 1013.2
20260502214621 16 237 9.7 16.1 0.00 0.00 0.00 33 1013.6
20260502213720 16 238 12.9 19.3 0.00 0.00 0.00 35 1013.6
20260502212721 15 212 16.1 24.1 0.00 0.00 0.00 35 1013.9
20260502211722 16 239 9.7 14.5 0.00 0.00 0.00 32 1013.6
20260502204721 15 233 8.0 11.3 0.00 0.00 0.00 36 1014.7
20260502202736 15 217 12.9 19.3 0.00 0.00 0.00 35 1015.0
20260502201721 15 236 9.7 17.7 0.00 0.00 0.00 35 1015.0
20260502200720 14 228 11.3 20.9 0.00 0.00 0.00 36 1015.3
20260502194821 14 266 9.7 16.1 0.00 0.00 0.00 34 1015.7
20260502193821 14 202 17.7 24.1 0.00 0.00 0.00 37 1016.1
20260502192920 14 261 17.7 27.4 0.00 0.00 0.00 35 1016.1
20260502191921 13 234 12.9 17.7 0.00 0.00 0.00 36 1016.4
20260502185020 13 216 16.1 24.1 0.00 0.00 0.00 37 1016.8
20260502184020 13 231 11.3 19.3 0.00 0.00 0.00 38 1017.1
20260502183119 13 245 12.9 20.9 0.00 0.00 0.00 36 1016.8
20260502182121 13 196 16.1 22.5 0.00 0.00 0.00 35 1017.1
20260502181119 13 198 19.3 25.7 0.00 0.00 0.00 36 1017.8
20260502180120 13 317 11.3 16.1 0.00 0.00 0.00 36 1017.8
20260502170319 12 273 11.3 19.3 0.00 0.00 0.00 38 1018.8
20260502164321 12 259 12.9 19.3 0.00 0.00 0.00 38 1018.8
20260502163320 12 282 14.5 19.3 0.00 0.00 0.00 36 1019.2
20260502161338 12 243 11.3 20.9 0.00 0.00 0.00 38 1019.5
20260502160322 12 248 8.0 14.5 0.00 0.00 0.00 39 1019.5
20260502151519 10 263 6.4 16.1 0.00 0.00 0.00 44 1020.6
20260502151421 10 267 8.0 14.5 0.00 0.00 0.00 43 1020.6
20260502150421 10 256 8.0 12.9 0.00 0.00 0.00 42 1020.6
20260502130420 5 247 8.0 9.7 0.00 0.00 0.00 67 1022.0
20260502123419 3 202 8.0 9.7 0.00 0.00 0.00 71 1022.3
20260502122420 2 202 8.0 11.3 0.00 0.00 0.00 71 1022.3
20260502121420 2 202 8.0 9.7 0.00 0.00 0.00 71 1022.7
20260502115419 1 202 6.4 9.7 0.00 0.00 0.00 77 1022.7
20260502114419 0 202 4.8 6.4 0.00 0.00 0.00 78 1022.7
20260502113422 0 202 4.8 8.0 0.00 0.00 0.00 77 1022.7
20260502112519 0 202 4.8 8.0 0.00 0.00 0.00 77 1022.7
20260502111520 0 202 4.8 6.4 0.00 0.00 0.00 77 1022.7
20260502110521 0 202 4.8 6.4 0.00 0.00 0.00 77 1022.7
20260502105618 0 202 6.4 8.0 0.00 0.00 0.00 75 1022.7
20260502104619 0 202 4.8 6.4 0.00 0.00 0.00 73 1022.7
20260502103620 0 202 4.8 6.4 0.00 0.00 0.00 73 1022.7
20260502102620 0 202 4.8 6.4 0.00 0.00 0.00 73 1022.7
20260502101620 0 202 4.8 6.4 0.00 0.00 0.00 71 1022.7
20260502090820 1 202 4.8 6.4 0.00 0.00 0.00 63 1022.3
20260502065820 2 202 3.2 4.8 0.00 0.00 0.00 59 1022.3
20260502063821 2 202 4.8 6.4 0.00 0.00 0.00 58 1022.7
20260502061821 2 202 4.8 6.4 0.00 0.00 0.00 56 1022.3
20260502060821 3 202 4.8 6.4 0.00 0.00 0.00 56 1022.3
20260502055836 3 202 4.8 6.4 0.00 0.00 0.00 56 1022.3
20260502054820 2 202 3.2 4.8 0.00 0.00 0.00 55 1022.3
20260502053820 3 202 4.8 6.4 0.00 0.00 0.00 56 1022.3
20260502051820 3 202 4.8 8.0 0.00 0.00 0.00 57 1022.3
20260502050918 3 202 1.6 3.2 0.00 0.00 0.00 57 1022.3
20260502045948 3 202 1.6 3.2 0.00 0.00 0.00 55 1022.0
20260502044929 3 202 3.2 4.8 0.00 0.00 0.00 57 1022.0
20260502043930 4 202 3.2 4.8 0.00 0.00 0.00 57 1022.0
20260502043847 4 202 4.8 6.4 0.00 0.00 0.00 57 1022.0
20260502042930 3 202 4.8 6.4 0.00 0.00 0.00 57 1022.0
20260502040930 5 202 3.2 4.8 0.00 0.00 0.00 55 1022.0
20260502035931 5 202 4.8 6.4 0.00 0.00 0.00 54 1022.0
20260502034929 4 202 4.8 6.4 0.00 0.00 0.00 53 1022.0
20260502034028 4 202 3.2 6.4 0.00 0.00 0.00 53 1022.0
20260502033031 5 225 3.2 4.8 0.00 0.00 0.00 54 1022.0
20260502032030 4 247 0.0 0.0 0.00 0.00 0.00 53 1022.0
20260502031931 3 247 0.0 0.0 0.00 0.00 0.00 52 1022.0
20260502030931 5 247 1.6 3.2 0.00 0.00 0.00 52 1022.0
20260502025930 4 315 0.0 0.0 0.00 0.00 0.00 49 1022.0
20260502024930 5 315 0.0 0.0 0.00 0.00 0.00 48 1022.0